Tallevast, FL

9:02 PM EST on February 20, 2017 (GMT -0500)
Sarasota-bradenton

Weather History for KSRQ - September, 2011

Change the Weather History Date:

Sunday, September 18, 2011

  Actual Average Record
Temperature  
Mean Temperature 84 °F 81 °F  
Max Temperature 92 °F 89 °F 95 °F (2005)
Min Temperature 75 °F 74 °F 67 °F (1957)
Degree Days  
Heating Degree Days 0 0  
Month to date heating degree days 0 0  
Since 1 July heating degree days 0 0  
Cooling Degree Days 19 16  
Month to date cooling degree days 313 305  
Year to date cooling degree days 2828 2602  
Growing Degree Days 33 (Base 50)    
Moisture  
Dew Point 72 °F    
Average Humidity 78    
Maximum Humidity 94    
Minimum Humidity 49    
Precipitation  
Precipitation 0.29 in 0.23 in 5.43 in (1947)
Month to date precipitation 3.70 5.00  
Year to date precipitation 35.37 43.33  
Sea Level Pressure  
Sea Level Pressure 30.04 in    
Wind  
Wind Speed 7 mph (NE)    
Max Wind Speed 22 mph    
Max Gust Speed 24 mph    
Visibility 9 miles    
Events Rain    
T = Trace of Precipitation, MM = Missing Value Source: NWS Daily Summary

Daily Weather History Graph

Daily Weather History Graph

Search for Another Location

Airport or City:

Trip Planner

Search our weather history database for the weather conditions in past years. The results will help you decide how hot, cold, wet, or windy it might be!

Date:

Astronomy

Sep. 18, 2011 Rise Set
Actual Time 7:16 AM EDT 7:31 PM EDT
Civil Twilight 6:53 AM EDT 7:54 PM EDT
Nautical Twilight 6:26 AM EDT 8:22 PM EDT
Astronomical Twilight 5:58 AM EDT 8:49 PM EDT
Moon 11:21 PM EDT (9/18) 12:37 PM EDT (9/18)
Length of Visible Light 13h 01m
Length of Day
12h 14m
Waning Gibbous, 68% of the Moon is Illuminated
Sep 18
Waning Gibbous
Sep 20
Last Quarter
Sep 27
New
Oct 3
First Quarter
Oct 11
Full

Hourly Weather History & Observations

Time (EDT) Temp. Heat Index Dew Point Humidity Pressure Visibility Wind Dir Wind Speed Gust Speed Precip Events Conditions
12:53 AM 78.1 °F - 69.1 °F 74% 30.06 in 10.0 mi East 8.1 mph - N/A   Overcast
1:53 AM 75.9 °F - 70.0 °F 82% 30.04 in 10.0 mi ENE 6.9 mph - N/A   Clear
2:53 AM 75.9 °F - 70.0 °F 82% 30.04 in 10.0 mi ENE 4.6 mph - N/A   Clear
3:53 AM 75.0 °F - 70.0 °F 84% 30.04 in 10.0 mi ENE 4.6 mph - N/A   Clear
4:53 AM 75.2 °F - 71.6 °F 89% 30.04 in 10.0 mi NNE 4.6 mph - N/A   Clear
5:53 AM 75.0 °F - 72.0 °F 90% 30.03 in 8.0 mi NE 4.6 mph - N/A   Clear
6:53 AM 75.0 °F - 73.0 °F 94% 30.05 in 7.0 mi NE 5.8 mph - N/A   Clear
7:46 AM 75.2 °F - 73.4 °F 94% 30.08 in 6.0 mi NE 5.8 mph - N/A   Scattered Clouds
7:53 AM 75.2 °F - 73.4 °F 94% 30.08 in 6.0 mi NE 8.1 mph - N/A   Mostly Cloudy
8:13 AM 75.2 °F - 73.4 °F 94% 30.08 in 6.0 mi ENE 8.1 mph - N/A   Scattered Clouds
8:53 AM 78.1 °F - 73.9 °F 87% 30.08 in 8.0 mi ENE 6.9 mph - N/A   Clear
9:53 AM 82.0 °F 87.4 °F 73.0 °F 74% 30.09 in 10.0 mi ENE 10.4 mph - N/A   Clear
11:34 AM 86.0 °F 91.8 °F 71.6 °F 62% 30.08 in 10.0 mi NE 11.5 mph - N/A   Mostly Cloudy
11:53 AM 87.1 °F 93.6 °F 72.0 °F 61% 30.07 in 10.0 mi East 11.5 mph 17.3 mph N/A   Mostly Cloudy
12:00 PM 87.8 °F 93.8 °F 71.6 °F 58% 30.07 in 10.0 mi East 9.2 mph - N/A   Scattered Clouds
12:53 PM 88.0 °F 94.7 °F 72.0 °F 59% 30.05 in 10.0 mi ENE 9.2 mph - N/A   Scattered Clouds
1:53 PM 89.1 °F 95.0 °F 71.1 °F 55% 30.04 in 10.0 mi ENE 6.9 mph - N/A   Partly Cloudy
2:53 PM 91.9 °F 97.4 °F 70.0 °F 48% 30.02 in 10.0 mi ENE 4.6 mph - N/A   Mostly Cloudy
3:53 PM 90.0 °F 96.9 °F 72.0 °F 55% 29.99 in 10.0 mi NNE 9.2 mph - N/A   Scattered Clouds
4:33 PM 78.8 °F - 73.4 °F 83% 30.00 in 4.0 mi NNE 10.4 mph 24.2 mph 0.27 in Rain Heavy Rain
4:40 PM 78.8 °F - 71.6 °F 78% 30.00 in 8.0 mi NNE 6.9 mph - 0.29 in   Overcast
4:53 PM 79.0 °F - 73.9 °F 84% 29.99 in 10.0 mi NNE 15.0 mph 21.9 mph 0.29 in Rain Light Rain
5:01 PM 80.6 °F 85.4 °F 73.4 °F 79% 29.99 in 10.0 mi NNE 11.5 mph 21.9 mph 0.00 in Rain Light Rain
5:53 PM 80.1 °F 84.5 °F 73.9 °F 81% 29.99 in 10.0 mi NNE 8.1 mph - 0.00 in   Mostly Cloudy
6:53 PM 81.0 °F 85.8 °F 73.0 °F 77% 29.99 in 10.0 mi NNE 6.9 mph - N/A   Partly Cloudy
7:53 PM 79.0 °F - 72.0 °F 79% 29.99 in 10.0 mi NE 5.8 mph - N/A   Scattered Clouds
8:53 PM 79.0 °F - 73.0 °F 82% 30.01 in 10.0 mi NE 6.9 mph - N/A   Mostly Cloudy
9:53 PM 80.6 °F 85.4 °F 73.4 °F 79% 30.04 in 10.0 mi ENE 8.1 mph - N/A   Overcast
10:53 PM 79.0 °F - 73.9 °F 84% 30.04 in 10.0 mi ENE 5.8 mph - N/A   Mostly Cloudy
11:53 PM 78.1 °F - 73.9 °F 87% 30.04 in 10.0 mi ENE 4.6 mph - N/A   Scattered Clouds